Chatham, MA

8:09 AM EST on December 13, 2019 (GMT -0500)
Chatham Municipal

Weather History for KCQX - October, 2019

Change the Weather History Date:

Sunday, October 27, 2019

  Actual Average Record
Temperature  
Mean Temperature 55 °F -  
Max Temperature 63 °F 55 °F 70 °F (1977)
Min Temperature 48 °F 42 °F 33 °F (1976)
Degree Days  
Heating Degree Days 10    
Growing Degree Days 5 (Base 50)    
Moisture  
Dew Point 51 °F    
Average Humidity 88    
Maximum Humidity 100    
Minimum Humidity 64    
Precipitation  
Precipitation 1.37 in - - ()
Sea Level Pressure  
Sea Level Pressure 29.94 in    
Wind  
Wind Speed 10 mph (SE)    
Max Wind Speed 25 mph    
Max Gust Speed 39 mph    
Visibility 5 miles    
Events Fog , Rain    
Averages and records for this station are not official NWS values.
T = Trace of Precipitation, MM = Missing Value Source: NWS Daily Summary

Daily Weather History Graph

Daily Weather History Graph

Search for Another Location

Airport or City:

Astronomy

Oct. 27, 2019 Rise Set
Actual Time 7:05 AM EDT 5:41 PM EDT
Civil Twilight 6:37 AM EDT 6:09 PM EDT
Nautical Twilight 6:04 AM EDT 6:42 PM EDT
Astronomical Twilight 5:32 AM EDT 7:14 PM EDT
Moon 6:08 AM EDT (10/27) 5:49 PM EDT (10/27)
Length of Visible Light 11h 32m
Length of Day
10h 35m
Waning Crescent, 0% of the Moon is Illuminated
Oct 27
Waning Crescent
Oct 27
New
Nov 4
First Quarter
Nov 12
Full
Nov 19
Last Quarter

Hourly Weather History & Observations

Time (EDT) Temp. Dew Point Humidity Pressure Visibility Wind Dir Wind Speed Gust Speed Precip Events Conditions
12:52 AM 48.0 °F 44.1 °F 86% 30.32 in 10.0 mi Calm Calm - N/A   Clear
1:52 AM 51.1 °F 44.1 °F 77% 30.33 in 10.0 mi Calm Calm - N/A   Clear
2:52 AM 51.1 °F 44.1 °F 77% 30.32 in 10.0 mi SSE 3.5 mph - N/A   Clear
3:52 AM 52.0 °F 43.0 °F 71% 30.30 in 10.0 mi SE 3.5 mph - N/A   Partly Cloudy
4:52 AM 52.0 °F 44.1 °F 74% 30.29 in 10.0 mi ESE 5.8 mph - N/A   Overcast
5:52 AM 53.1 °F 43.0 °F 69% 30.28 in 10.0 mi ESE 5.8 mph - N/A   Overcast
6:52 AM 53.1 °F 41.0 °F 64% 30.25 in 10.0 mi ESE 9.2 mph - N/A   Overcast
7:52 AM 54.0 °F 42.1 °F 64% 30.24 in 10.0 mi ESE 10.4 mph 19.6 mph N/A   Overcast
8:52 AM 54.0 °F 42.1 °F 64% 30.24 in 10.0 mi SSE 10.4 mph 19.6 mph N/A   Overcast
9:52 AM 53.1 °F 43.0 °F 69% 30.23 in 10.0 mi SE 11.5 mph 20.7 mph 0.00 in Rain Light Rain
10:52 AM 53.1 °F 45.0 °F 74% 30.19 in 10.0 mi ESE 15.0 mph 20.7 mph 0.01 in Rain Light Rain
12:52 PM 52.0 °F 46.9 °F 83% 30.12 in 10.0 mi ESE 16.1 mph 21.9 mph 0.03 in Rain Light Rain
1:52 PM 53.1 °F 48.0 °F 83% 30.05 in 6.0 mi ESE 17.3 mph 26.5 mph 0.03 in Rain Light Rain
2:15 PM 53.1 °F 50.0 °F 89% 30.01 in 4.0 mi ESE 16.1 mph 29.9 mph 0.03 in Rain Light Rain
2:52 PM 53.1 °F 50.0 °F 89% 29.99 in 2.0 mi ESE 19.6 mph 28.8 mph 0.06 in Rain Light Rain
3:13 PM 53.1 °F 51.1 °F 93% 29.96 in 2.5 mi ESE 20.7 mph 31.1 mph 0.04 in Rain Light Rain
3:52 PM 53.1 °F 51.1 °F 93% 29.94 in 1.5 mi East 18.4 mph 33.4 mph 0.18 in Rain Heavy Rain
4:11 PM 53.1 °F 52.0 °F 96% 29.94 in 2.0 mi ESE 13.8 mph 27.6 mph 0.11 in Rain Heavy Rain
4:21 PM 53.1 °F 52.0 °F 96% 29.92 in 1.2 mi ESE 17.3 mph 28.8 mph 0.20 in Rain Heavy Rain
4:52 PM 53.1 °F 52.0 °F 96% 29.86 in 1.0 mi ESE 25.3 mph 35.7 mph 0.55 in Rain Heavy Rain
5:52 PM 54.0 °F 53.1 °F 97% 29.80 in 3.0 mi SE 16.1 mph 32.2 mph 0.18 in Rain Light Rain
6:09 PM 55.0 °F 54.0 °F 96% 29.78 in 2.5 mi SE 16.1 mph 32.2 mph 0.04 in Rain Rain
6:30 PM 55.0 °F 54.0 °F 96% 29.75 in 3.0 mi SE 16.1 mph 36.8 mph 0.08 in Rain Light Rain
6:52 PM 55.9 °F 55.0 °F 97% 29.74 in 2.5 mi SE 21.9 mph 36.8 mph 0.11 in Rain Light Rain
7:22 PM 55.9 °F 55.9 °F 100% 29.72 in 3.0 mi SE 21.9 mph 39.1 mph 0.08 in Rain Light Rain
7:52 PM 57.0 °F 55.9 °F 96% 29.68 in 1.8 mi ESE 20.7 mph 29.9 mph 0.18 in Rain Heavy Rain
8:06 PM 57.0 °F 57.0 °F 100% 29.67 in 2.5 mi SE 13.8 mph 33.4 mph 0.03 in Rain Light Rain
8:16 PM 57.0 °F 57.0 °F 100% 29.67 in 3.0 mi SE 16.1 mph 28.8 mph 0.03 in Rain Light Rain
8:52 PM 57.9 °F 57.9 °F 100% 29.65 in 3.0 mi SE 10.4 mph 20.7 mph 0.04 in Rain Light Rain
9:21 PM 61.0 °F 61.0 °F 100% 29.63 in 0.5 mi SSW 9.2 mph - 0.00 in Fog Fog
9:52 PM 61.0 °F 61.0 °F 100% 29.64 in 0.8 mi WSW 9.2 mph - 0.00 in   Mist
10:05 PM 61.0 °F 61.0 °F 100% 29.63 in 1.2 mi WSW 6.9 mph 17.3 mph N/A   Overcast
10:12 PM 62.1 °F 62.1 °F 100% 29.63 in 3.0 mi WSW 6.9 mph - N/A   Overcast
10:52 PM 57.0 °F 57.0 °F 100% 29.66 in 7.0 mi West 11.5 mph 24.2 mph N/A   Overcast
11:03 PM 57.0 °F 55.9 °F 96% 29.66 in 10.0 mi WNW 13.8 mph 25.3 mph N/A   Overcast
11:52 PM 55.9 °F 55.0 °F 97% 29.69 in 7.0 mi WNW 15.0 mph 29.9 mph N/A   Overcast